TimeCDT,TemperatureF,Dew PointF,Humidity,Sea Level PressureIn,VisibilityMPH,Wind Direction,Wind SpeedMPH,Gust SpeedMPH,PrecipitationIn,Events,Conditions,WindDirDegrees,DateUTC
12:15 AM,51.3,48.9,92,30.03,10.0,Calm,Calm,-,N/A,,Clear,0,2012-10-31 05:15:00
12:35 AM,50.4,48.4,93,30.03,0.8,Calm,Calm,-,N/A,,Mist,0,2012-10-31 05:35:00
12:55 AM,51.1,49.3,94,30.03,7.0,Calm,Calm,-,N/A,,Clear,0,2012-10-31 05:55:00
1:15 AM,50.7,48.4,92,30.03,7.0,Calm,Calm,-,N/A,,Clear,0,2012-10-31 06:15:00
1:35 AM,50.4,48.4,93,30.03,10.0,Calm,Calm,-,N/A,,Clear,0,2012-10-31 06:35:00
1:55 AM,49.5,47.1,92,30.03,10.0,Calm,Calm,-,N/A,,Clear,0,2012-10-31 06:55:00
2:15 AM,49.6,47.5,92,30.03,10.0,Calm,Calm,-,N/A,,Clear,0,2012-10-31 07:15:00
2:35 AM,50.2,48.2,93,30.03,7.0,Calm,Calm,-,N/A,,Clear,0,2012-10-31 07:35:00
2:55 AM,50.4,48.2,92,30.03,10.0,Calm,Calm,-,N/A,,Clear,0,2012-10-31 07:55:00
3:15 AM,50.5,48.4,92,30.03,7.0,Calm,Calm,-,N/A,,Clear,0,2012-10-31 08:15:00
3:35 AM,50.2,48.0,92,30.03,10.0,Calm,Calm,-,N/A,,Clear,0,2012-10-31 08:35:00
3:55 AM,50.0,48.0,93,30.03,10.0,Calm,Calm,-,N/A,,Clear,0,2012-10-31 08:55:00
4:15 AM,50.0,48.2,94,30.03,5.0,Calm,Calm,-,N/A,,Clear,0,2012-10-31 09:15:00
4:35 AM,49.3,47.7,94,30.02,2.5,Calm,Calm,-,N/A,,Clear,0,2012-10-31 09:35:00
4:55 AM,50.0,48.4,94,30.02,0.5,Calm,Calm,-,N/A,Fog,Fog,0,2012-10-31 09:55:00
5:15 AM,50.2,48.6,94,30.03,0.2,Calm,Calm,-,N/A,Fog,Fog,0,2012-10-31 10:15:00
5:35 AM,49.5,48.2,95,30.03,2.0,Calm,Calm,-,N/A,,Overcast,0,2012-10-31 10:35:00
5:55 AM,49.5,48.0,95,30.03,2.5,Calm,Calm,-,N/A,,Mist,0,2012-10-31 10:55:00
6:00 AM,50.0,48.2,94,30.03,4.0,Calm,Calm,-,N/A,,Scattered Clouds,0,2012-10-31 11:00:00
6:11 AM,48.2,48.2,100,30.03,0.8,Calm,Calm,-,N/A,,Mist,0,2012-10-31 11:11:00
6:58 AM,50.0,48.2,94,30.04,1.0,Calm,Calm,-,N/A,,Clear,0,2012-10-31 11:58:00
7:58 AM,50.0,48.2,94,30.05,0.8,Calm,Calm,-,N/A,,Clear,0,2012-10-31 12:58:00
8:50 AM,55.4,55.4,100,30.06,2.0,Calm,Calm,-,N/A,,Scattered Clouds,0,2012-10-31 13:50:00
9:15 AM,59.0,57.2,94,30.07,5.0,Calm,Calm,-,N/A,,Clear,0,2012-10-31 14:15:00
9:45 AM,64.4,57.2,77,30.07,10.0,Calm,Calm,-,N/A,,Clear,0,2012-10-31 14:45:00
10:58 AM,75.2,57.2,53,30.07,10.0,SW,11.5,-,N/A,,Clear,230,2012-10-31 15:58:00
11:50 AM,77.0,57.2,50,30.06,10.0,WSW,10.4,-,N/A,,Scattered Clouds,240,2012-10-31 16:50:00
12:58 PM,78.8,55.4,44,30.04,10.0,West,12.7,16.1,N/A,,Scattered Clouds,280,2012-10-31 17:58:00
1:50 PM,80.6,53.6,39,30.01,10.0,West,12.7,19.6,N/A,,Scattered Clouds,260,2012-10-31 18:50:00
2:50 PM,80.6,55.4,42,29.97,10.0,SW,6.9,-,N/A,,Scattered Clouds,230,2012-10-31 19:50:00
4:50 PM,80.6,57.2,45,29.96,10.0,South,10.4,-,N/A,,Clear,190,2012-10-31 21:50:00
5:50 PM,75.2,60.8,61,29.97,10.0,SSW,9.2,-,N/A,,Clear,200,2012-10-31 22:50:00
6:50 PM,71.6,-9999,N/A,29.98,10.0,SSW,8.1,-,N/A,,Clear,210,2012-10-31 23:50:00
7:56 PM,69.8,62.6,78,29.99,10.0,SSW,9.2,-,N/A,,Clear,210,2012-11-01 00:56:00
8:50 PM,69.8,62.6,78,30.00,10.0,SSW,4.6,-,N/A,,Clear,210,2012-11-01 01:50:00
9:52 PM,68.0,62.6,83,30.01,10.0,SW,3.5,-,N/A,,Clear,230,2012-11-01 02:52:00
10:15 PM,68.0,62.6,83,30.02,10.0,Calm,Calm,-,N/A,,Clear,0,2012-11-01 03:15:00
10:35 PM,68.0,62.8,83,30.02,10.0,SW,3.5,-,N/A,,Clear,220,2012-11-01 03:35:00
10:55 PM,67.3,62.6,85,30.02,10.0,SW,3.5,-,N/A,,Clear,220,2012-11-01 03:55:00
11:15 PM,67.3,62.8,85,30.02,10.0,WSW,3.5,-,N/A,,Clear,240,2012-11-01 04:15:00
11:35 PM,67.3,62.8,85,30.03,10.0,Calm,Calm,-,N/A,,Clear,0,2012-11-01 04:35:00
11:55 PM,66.6,61.5,84,30.03,10.0,WSW,3.5,-,N/A,,Clear,240,2012-11-01 04:55:00